User: anonymous   Login
Location: Wilsall
(45.9940°N, 110.6590°W)
Time: 09:43:54
(UTC-06:00)
Language:

GP-B - Orbit

View from above orbital plane
View from above orbital plane
View from above satellite
View from above satellite

Ground track
Ground track

The orbit data is extracted from the following two-line orbital elements,

1 28230U 04014A   15145.54065041  .00000393  00000-0  52060-4 0  9997
2 28230 089.8727 135.0367 0002589 075.0845 285.0664 14.78142459597755
Epoch (UTC): 25 May 2015 12:58:32
Eccentricity: 0.0002589
inclination: 89.8727°
perigee height: 633 km
apogee height: 637 km
right ascension of ascending node: 135.0367°
argument of perigee: 75.0845°
revolutions per day: 14.78142459
mean anomaly at epoch: 285.0664°
orbit number at epoch: 59775

The dashed part of the orbit path shows where the satellite is in the earth's shadow,  

DLR